Regional Weather Roundup
Issued by NWS

Home | Current Version | Previous Version | Graphics & Text | Print | Product List | Glossary On
Versions: 1 2 3 4 5 6 7 8 9 10 11 12 13 14 15 16 17 18 19 20 21 22 23 24 25 26 27 28 29 30 31 32 33 34 35 36 37 38 39 40 41 42 43 44 45 46 47 48 49
000
ASUS45 KBOU 190807
RWRCO

WEATHER ROUNDUP FOR COLORADO
NATIONAL WEATHER SERVICE DENVER/BOULDER CO
200 AM MDT FRI SEP 19 2014

NOTE: "FAIR" INDICATES FEW OR NO CLOUDS BELOW 12000 FEET WITH NO
SIGNIFICANT WEATHER AND/OR OBSTRUCTIONS TO VISIBILITY.

COZ001>005-013-030-031-190900-
...NORTHWEST COLORADO...

CITY           SKY/WX    TMP DP  RH WIND       PRES   REMARKS
CRAIG          CLEAR     44  40  85 S3        30.07R
HAYDEN         CLEAR     55  37  50 E8        30.08R
MEEKER         CLEAR     53  40  61 E6        30.09R
MOUNT WERNER   NOT AVBL
STEAMBOAT SPGS PTCLDY    50  40  69 CALM      30.11R
WALDEN         MOCLDY    46  36  66 E5        30.18S
$$

COZ006>008-011-190900-
...WEST CENTRAL VALLEYS...

CITY           SKY/WX    TMP DP  RH WIND       PRES   REMARKS
GRAND JUNCTION CLEAR     62  43  49 NE5       29.95R
MONTROSE       CLEAR     63  43  48 SE12      30.05S
EAGLE          CLEAR     54  39  58 CALM      30.13R
RIFLE          CLEAR     56  41  57 CALM      30.03R
DELTA          CLEAR     64  42  44 E7        30.00S
NUCLA          CLEAR     59  41  51 E7        30.09R
$$

COZ017>023-064>068-190900-
...SOUTHWEST COLORADO...

CITY           SKY/WX    TMP DP  RH WIND       PRES   REMARKS
DURANGO        CLEAR     53  40  61 N7        30.14R
CORTEZ         CLEAR     49  43  80 CALM      30.06R
PAGOSA SPRINGS CLEAR     54  35  48 CALM      30.22S
TELLURIDE      NOT AVBL
WOLF CREEK PAS CLEAR     43  36  75 SW22G28   30.48S
$$

COZ009-010-012-014-032>034-037-058>063-190900-
...CENTRAL COLORADO...

CITY           SKY/WX    TMP DP  RH WIND       PRES   REMARKS
ASPEN          CLEAR     51  37  58 SW9       30.18S
BUENA VISTA    CLEAR     46  29  52 W7        30.23S
COPPER MTN     NOT AVBL
BERTHOUD PASS  FAIR      43  41  93 MISG      30.54S
COTTONWOOD PAS CLEAR     55  27  33 W3        30.35S
GUNNISON       CLEAR     48  34  57 CALM      30.22S
KREMMLING      MOCLDY    48  37  66 CALM      30.18R
LEADVILLE      CLEAR     45  26  47 NE6       30.34S
MONARCH PASS   CLEAR     46  30  53 SW6       30.59F
SALIDA         CLEAR     53  33  46 W3        30.27S
SUNLIGHT       CLEAR     52  37  58 CALM      30.41S
WILKERSON PASS NOT AVBL
$$

COZ069>075-190900-
...SAN LUIS VALLEY/SANGRE DE CRISTO MOUNTAINS...

CITY           SKY/WX    TMP DP  RH WIND       PRES   REMARKS
ALAMOSA        PTCLDY    46  38  73 E6        30.18R
LA VETA PASS   CLEAR     50  32  50 W6        30.35F
SAGUACHE       NOT AVBL
$$

COZ035-036-038>040-190900-
...NORTHERN COLORADO FRONT RANGE...

CITY           SKY/WX    TMP DP  RH WIND       PRES   REMARKS
DENVER INTL AP CLEAR     68  35  29 S18       29.97S
DMNS CITY PARK   N/A     72  33  23 S12       29.96F
AURORA         CLEAR     67  35  31 S15       30.00S
FRONT RANGE AP NOT AVBL
ERIE MUNI ARPT CLEAR     65  36  33 SW7       29.93S
BOULDER MUN AP CLEAR     64  36  34 S5        29.94S
CENTENNIAL     CLEAR     62  36  37 S6        30.02S
BROOMFIELD     CLEAR     68  36  30 S7        29.98S
FORT COLLINS   PTCLDY    59  45  58 N6        29.94S
LONGMONT       PTCLDY    54  45  70 CALM      29.95S
$$

COZ041-046-047-076>085-087-088-190900-
...PIKES PEAK/PALMER DIVIDE AND SOUTHERN FOOTHILLS...

CITY           SKY/WX    TMP DP  RH WIND       PRES   REMARKS
COLO. SPRINGS  CLEAR     59  46  62 E8        30.10S
A. F. ACADEMY  CLEAR     46  38  73 N6        30.11S
ELLICOTT       NOT AVBL
FALCON         CLEAR     50  42  74 CALM      30.14F
FORT CARSON    CLEAR     57  46  65 S3        30.07S
LIMON          CLEAR     55  50  83 CALM      30.03F
MONUMENT HILL  CLEAR     61  37  41 S17G23    30.11S
TRINIDAD       CLEAR     61  53  75 W15       30.06F
$$

COZ042>045-048>051-090-091-190900-
...NORTHEAST COLORADO...

CITY           SKY/WX    TMP DP  RH WIND       PRES   REMARKS
GREELEY ARPT   CLEAR     55  37  50 N3        29.93S
AKRON          CLEAR     66  54  65 SW18      29.95S
BURLINGTON     CLEAR     65  56  72 SW14      29.96F
WRAY           CLEAR     66  57  71 SW12      29.89
STERLING       CLEAR     57  52  82 SW5       29.89S
HOLYOKE        CLEAR     61  55  82 SW7       29.89S
FORT MORGAN    CLEAR     63  49  60 SW6       29.94R
$$

COZ086-089-092>099-190900-
...SOUTHEAST COLORADO...

CITY           SKY/WX    TMP DP  RH WIND       PRES   REMARKS
PUEBLO         CLEAR     59  49  69 N8        29.99F
LA JUNTA       CLEAR     64  56  75 S6        29.98S
LAMAR          CLEAR     60  57  89 SE3       29.96S
SPRINGFIELD      N/A     60  59  96 S12       30.02F
$$


USA.gov is the U.S. government's official web portal to all federal, state and local government web resources and services.